Location: Austin
(30.3000°N, 97.7500°W)
Time: 03:43:30
(UTC-05:00)

Cosmos 1707 Rocket - Pass Details

Date: 01 October 2024
Orbit: 601 x 627 km, 82.5° (Epoch: 06 October)

Event Time Altitude Azimuth Distance (km) Brightness Sun altitude
Rises 19:50:33 0° 6° (N) 2,872 6.9 -8.4°
Reaches altitude 10° 19:52:59 10° 17° (NNE) 1,961 6.0 -8.9°
Maximum altitude 19:56:51 31° 80° (E) 1,062 4.2 -9.7°
Drops below altitude 10° 20:00:40 10° 143° (SE) 1,940 5.7 -10.6°
Sets 20:03:04 0° 154° (SSE) 2,836 6.7 -11.1°
